Voltar ao catálogo

VELA 11/12 INTERSTAGE

LostMilitarHEO
NORAD 60002·PAYLOAD·🇺🇸 United States

Lançado Apr 8, 1970 de Cape Canaveral Space Force Station

Loading…

Próximas Passagens (próximas 24 horas)

TLE

ObsoletoSource: Space-Track

Época: Jun 8, 2026, 20:48 UTC

1 60002U 70027D   26159.86688047 -.00000298  00000-0  00000+0 0  9993
2 60002  18.7333  33.0398 7962767 288.7071 359.0840  0.45904703 20944

Acompanhe VELA 11/12 INTERSTAGE em tempo real com AllMySat

Download on the App Store